Weather History for KCUB - May, 2013

Change the Weather History Date:

Sunday, May 12, 2013

  Actual Average Record
Temperature  
Mean Temperature 71 °F 71 °F  
Max Temperature 80 °F 83 °F 97 °F (2000)
Min Temperature 61 °F 59 °F 52 °F (2006)
Degree Days  
Heating Degree Days 0 0  
Month to date heating degree days 16 11  
Since 1 July heating degree days 2191 2312  
Cooling Degree Days 6 7  
Month to date cooling degree days 32 66  
Year to date cooling degree days 146 165  
Growing Degree Days 22 (Base 50)    
Moisture  
Dew Point 49 °F    
Average Humidity 48    
Maximum Humidity 81    
Minimum Humidity 23    
Precipitation  
Precipitation 0.00 in 0.09 in 1.02 in (2004)
Month to date precipitation 0.66 1.00  
Year to date precipitation 15.46 14.85  
Sea Level Pressure  
Sea Level Pressure 29.93 in    
Wind  
Wind Speed 6 mph (WNW)    
Max Wind Speed 17 mph    
Max Gust Speed 24 mph    
Visibility 10 miles    
Events      
T = Trace of Precipitation, MM = Missing Value Source: NWS Daily Summary

Daily Weather History Graph

Daily Weather History Graph

Search for Another Location

Airport or City:

Trip Planner

Search our weather history database for the weather conditions in past years. The results will help you decide how hot, cold, wet, or windy it might be!

Date:

Astronomy

May. 12, 2013 Rise Set
Actual Time 6:24 AM EDT 8:16 PM EDT
Civil Twilight 5:57 AM EDT 8:43 PM EDT
Nautical Twilight 5:24 AM EDT 9:17 PM EDT
Astronomical Twilight 4:48 AM EDT 9:52 PM EDT
Moon 8:20 AM EDT (5/12) 10:41 PM EDT (5/12)
Length of Visible Light 14h 46m
Length of Day
13h 51m
Waxing Crescent, 6% of the Moon is Illuminated
May 12
Waxing Crescent
May 18
First Quarter
May 25
Full
May 31
Last Quarter
Jun 8
New

Hourly Weather History & Observations

Time (EDT) Temp. Dew Point Humidity Pressure Visibility Wind Dir Wind Speed Gust Speed Precip Events Conditions
12:53 AM 73.0 °F 61.0 °F 66% 29.87 in 10.0 mi West 6.9 mph - N/A   Overcast
1:53 AM 71.1 °F 60.1 °F 68% 29.87 in 10.0 mi SW 3.5 mph - N/A   Scattered Clouds
2:53 AM 70.0 °F 61.0 °F 73% 29.86 in 10.0 mi WSW 5.8 mph - N/A   Partly Cloudy
3:53 AM 69.1 °F 61.0 °F 75% 29.85 in 10.0 mi Variable 3.5 mph - N/A   Mostly Cloudy
4:53 AM 69.1 °F 62.1 °F 78% 29.87 in 10.0 mi Calm Calm - N/A   Clear
5:53 AM 68.0 °F 62.1 °F 81% 29.89 in 10.0 mi WNW 5.8 mph - N/A   Mostly Cloudy
6:53 AM 66.9 °F 57.0 °F 70% 29.91 in 10.0 mi NW 6.9 mph - N/A   Scattered Clouds
7:53 AM 66.9 °F 57.0 °F 70% 29.94 in 10.0 mi NW 6.9 mph - N/A   Clear
8:53 AM 69.1 °F 55.0 °F 61% 29.95 in 10.0 mi NW 9.2 mph - N/A   Clear
9:53 AM 71.1 °F 52.0 °F 51% 29.95 in 10.0 mi NE 5.8 mph - N/A   Clear
10:53 AM 73.0 °F 50.0 °F 44% 29.96 in 10.0 mi NW 10.4 mph - N/A   Clear
11:53 AM 73.9 °F 46.9 °F 38% 29.96 in 10.0 mi Variable 5.8 mph - N/A   Clear
12:53 PM 75.9 °F 46.9 °F 36% 29.95 in 10.0 mi Variable 4.6 mph - N/A   Clear
1:53 PM 77.0 °F 45.0 °F 32% 29.94 in 10.0 mi NW 10.4 mph 18.4 mph N/A   Clear
2:53 PM 79.0 °F 46.9 °F 32% 29.92 in 10.0 mi Variable 6.9 mph - N/A   Partly Cloudy
3:53 PM 80.1 °F 44.1 °F 28% 29.91 in 10.0 mi West 11.5 mph 21.9 mph N/A   Clear
4:53 PM 79.0 °F 41.0 °F 26% 29.91 in 10.0 mi WNW 12.7 mph 19.6 mph N/A   Clear
5:53 PM 78.1 °F 42.1 °F 28% 29.92 in 10.0 mi WNW 13.8 mph 19.6 mph N/A   Clear
6:53 PM 77.0 °F 39.9 °F 26% 29.93 in 10.0 mi NW 8.1 mph 18.4 mph N/A   Clear
7:53 PM 75.0 °F 36.0 °F 24% 29.96 in 10.0 mi WNW 8.1 mph - N/A   Clear
8:53 PM 71.1 °F 37.0 °F 29% 29.97 in 10.0 mi Calm Calm - N/A   Clear
9:53 PM 70.0 °F 37.9 °F 31% 30.00 in 10.0 mi NW 3.5 mph - N/A   Clear
10:53 PM 64.9 °F 39.0 °F 39% 30.02 in 10.0 mi Calm Calm - N/A   Clear
11:53 PM 63.0 °F 41.0 °F 45% 30.04 in 10.0 mi NNW 3.5 mph - N/A   Clear